Location: Dealu Mare
(46.0500°N, 22.8167°E)
Time: 20:43:48
(UTC+00:00)

Cosmos 1656 Rocket - Pass Details

Date: 15 January 2026
Orbit: 794 x 844 km, 71.1° (Epoch: 10 February)

Event Time Altitude Azimuth Distance (km) Brightness Sun altitude
Rises 05:21:17 0° 201° (SSW) 3,386 6.9 -7.9°
Reaches altitude 10° 05:23:43 10° 201° (SSW) 2,457 6.2 -7.5°
Maximum altitude 05:29:22 82° 114° (ESE) 856 3.9 -6.6°
Drops below altitude 10° 05:35:03 10° 28° (NNE) 2,463 6.2 -5.7°
Sets 05:37:29 0° 27° (NNE) 3,396 6.9 -5.4°
